Location: *
(50.5492°N, 7.7469°E)
Time: 03:29:07
(UTC+00:00)

STARLINK-72 - Pass Details

Date: 21 October 2019
Orbit: 548 x 551 km, 53.0° (Epoch: 17 November)

Event Time Altitude Azimuth Distance (km) Brightness Sun altitude
Rises 17:20:55 0° 269° (W) 2,716 9.5 -9.4°
Reaches altitude 10° 17:23:10 10° 273° (W) 1,823 7.9 -9.8°
Maximum altitude 17:27:17 62° 354° (N) 622 3.9 -10.5°
Enters shadow 17:30:35 15° 74° (ENE) 1,513 5.2 -11.0°
